TimePST,TemperatureF,Dew PointF,Humidity,Sea Level PressureIn,VisibilityMPH,Wind Direction,Wind SpeedMPH,Gust SpeedMPH,PrecipitationIn,Events,Conditions,WindDirDegrees,DateUTC
12:53 AM,3.0,-4.0,73,30.41,10.0,Calm,Calm,-,N/A,,Clear,0,2013-12-08 08:53:00
1:53 AM,3.0,-5.1,69,30.42,10.0,Calm,Calm,-,N/A,,Clear,0,2013-12-08 09:53:00
2:53 AM,3.0,-4.0,73,30.43,10.0,Calm,Calm,-,N/A,,Clear,0,2013-12-08 10:53:00
3:53 AM,3.9,-2.0,76,30.42,10.0,Calm,Calm,-,N/A,,Clear,0,2013-12-08 11:53:00
4:53 AM,5.0,-2.9,70,30.42,10.0,Calm,Calm,-,N/A,,Scattered Clouds,0,2013-12-08 12:53:00
5:53 AM,6.1,-2.0,69,30.43,10.0,Calm,Calm,-,N/A,,Mostly Cloudy,0,2013-12-08 13:53:00
6:53 AM,7.0,-0.0,73,30.44,10.0,ESE,3.5,-,N/A,,Overcast,120,2013-12-08 14:53:00
7:53 AM,8.1,-0.0,70,30.45,10.0,South,4.6,-,N/A,,Overcast,170,2013-12-08 15:53:00
8:53 AM,9.0,1.0,70,30.47,10.0,Calm,Calm,-,N/A,,Mostly Cloudy,0,2013-12-08 16:53:00
9:53 AM,10.9,1.0,64,30.49,10.0,Calm,Calm,-,N/A,,Overcast,0,2013-12-08 17:53:00
10:53 AM,16.0,1.9,54,30.47,10.0,Variable,3.5,-,N/A,,Scattered Clouds,0,2013-12-08 18:53:00
11:53 AM,19.9,3.0,48,30.47,10.0,East,5.8,-,N/A,,Mostly Cloudy,90,2013-12-08 19:53:00
12:53 PM,21.9,3.0,44,30.46,10.0,Calm,Calm,-,N/A,,Clear,0,2013-12-08 20:53:00
1:53 PM,21.9,3.0,44,30.47,10.0,SSE,4.6,-,N/A,,Clear,150,2013-12-08 21:53:00
2:53 PM,21.9,1.9,42,30.50,10.0,East,4.6,-,N/A,,Clear,90,2013-12-08 22:53:00
3:53 PM,19.0,1.9,47,30.52,10.0,East,5.8,-,N/A,,Clear,80,2013-12-08 23:53:00
4:53 PM,12.9,1.0,59,30.52,10.0,ENE,6.9,-,N/A,,Clear,60,2013-12-09 00:53:00
5:53 PM,10.9,1.9,67,30.53,10.0,East,4.6,-,N/A,,Clear,80,2013-12-09 01:53:00
6:53 PM,9.0,1.9,73,30.52,10.0,NNW,3.5,-,N/A,,Clear,330,2013-12-09 02:53:00
7:53 PM,9.0,3.0,77,30.54,10.0,Calm,Calm,-,N/A,,Clear,0,2013-12-09 03:53:00
8:53 PM,9.0,1.0,70,30.56,10.0,Calm,Calm,-,N/A,,Clear,0,2013-12-09 04:53:00
9:53 PM,8.1,1.0,73,30.55,10.0,NE,3.5,-,N/A,,Clear,50,2013-12-09 05:53:00
10:53 PM,7.0,-0.0,73,30.56,10.0,SE,3.5,-,N/A,,Clear,130,2013-12-09 06:53:00
11:53 PM,8.1,-0.0,70,30.54,10.0,East,5.8,-,N/A,,Clear,90,2013-12-09 07:53:00